FW1524 Weather Reports


time (UTC)temp
C
wind
direction
speed
KPH
gust
KPH
rain 1hr
cm
rain 24hr
cm
rain mn
cm
humidity
%
barometer
mb
20260508131603 7 163 0.0 0.0 0.00 0.03 0.00 1 1010.9
20260508130054 7 166 0.0 0.0 0.00 0.03 0.00 1 1010.7
20260508124542 6 146 0.0 0.0 0.00 0.03 0.00 1 1010.4
20260508123039 6 153 0.0 0.0 0.00 0.03 0.00 1 1010.8
20260508121540 6 159 0.0 0.0 0.00 0.03 0.00 1 1010.9
20260508120039 5 159 0.0 0.0 0.00 0.03 0.00 1 1010.8
20260508114600 5 177 0.0 0.0 0.00 0.03 0.00 1 1011.0
20260508113058 5 177 0.0 0.0 0.00 0.03 0.00 1 1011.1
20260508111558 5 177 0.0 0.0 0.00 0.03 0.00 1 1011.1
20260508110058 4 178 0.0 0.0 0.00 0.03 0.00 1 1011.0
20260508104528 4 207 0.0 0.0 0.00 0.03 0.00 1 1011.0
20260508103030 3 217 0.0 0.0 0.00 0.03 0.00 1 1010.9
20260508101533 3 219 0.0 0.0 0.00 0.03 0.00 1 1011.0
20260508100015 3 219 0.0 0.0 0.00 0.03 0.00 1 1011.1
20260508094510 3 219 0.0 0.0 0.00 0.03 0.00 1 1011.1
20260508093008 3 193 0.0 0.0 0.00 0.03 0.00 1 1010.8
20260508091501 4 193 0.0 0.0 0.00 0.03 0.00 1 1010.8
20260508090115 5 193 0.0 0.0 0.00 0.03 0.00 1 1010.4
20260508084548 5 193 0.0 0.0 0.00 0.03 0.00 1 1010.3
20260508083055 5 193 0.0 0.0 0.00 0.03 0.00 1 1010.5
20260508081542 6 193 0.0 0.0 0.00 0.03 0.00 1 1010.1
20260508080037 6 185 0.0 0.0 0.00 0.03 0.00 1 1010.0
20260508074550 7 186 0.0 1.6 0.00 0.03 0.00 1 1010.0
20260508073043 7 167 0.0 1.6 0.00 0.03 0.00 1 1010.1
20260508071538 6 174 0.0 0.0 0.00 0.03 0.00 1 1010.1
20260508070033 6 220 0.0 0.0 0.00 0.03 0.00 1 1009.8
20260508064511 6 221 0.0 0.0 0.00 0.03 0.00 1 1009.9
20260508063005 6 221 0.0 0.0 0.00 0.03 0.00 1 1009.9
20260508061503 6 221 0.0 0.0 0.00 0.03 0.00 1 1009.7
20260508060057 6 208 0.0 0.0 0.00 0.03 0.00 1 1009.8
20260508054524 6 208 0.0 0.0 0.00 0.03 0.00 11 1009.7
20260508053024 6 208 0.0 0.0 0.00 0.03 0.00 20 1009.9
20260508051514 7 208 0.0 0.0 0.00 0.03 0.00 23 1010.0
20260508050019 8 208 0.0 0.0 0.00 0.03 0.00 26 1009.8
20260508044506 8 208 0.0 0.0 0.00 0.03 0.00 38 1010.2
20260508043007 8 208 0.0 0.0 0.00 0.03 0.03 48 1010.3
20260508041539 8 219 0.0 1.6 0.00 0.03 0.03 47 1010.3
20260508040040 7 230 0.0 1.6 0.00 0.03 0.03 35 1010.1
20260508034534 7 16 0.0 0.0 0.00 0.03 0.03 30 1009.9
20260508033033 7 15 0.0 0.0 0.00 0.03 0.03 38 1009.6
20260508031533 7 16 0.0 0.0 0.00 0.03 0.03 39 1009.6
20260508030027 7 16 0.0 0.0 0.00 0.03 0.03 46 1009.5
20260508024539 8 16 0.0 0.0 0.00 0.03 0.03 54 1009.2
20260508023026 8 16 0.0 0.0 0.00 0.03 0.03 57 1009.1
20260508021536 8 16 0.0 0.0 0.00 0.03 0.03 57 1009.0
20260508020030 8 16 0.0 0.0 0.00 0.03 0.03 58 1009.1
20260508014541 8 11 0.0 1.6 0.00 0.03 0.03 58 1009.0
20260508013020 8 26 0.0 0.0 0.00 0.03 0.03 51 1008.9
20260508011520 8 253 0.0 0.0 0.00 0.03 0.03 32 1008.8
20260508010023 9 254 0.0 0.0 0.00 0.03 0.03 38 1008.6
20260508004515 9 259 0.0 0.0 0.00 0.03 0.03 47 1008.5
20260508003014 10 259 0.0 0.0 0.00 0.03 0.03 52 1008.3
20260508001502 10 262 0.0 0.0 0.00 0.03 0.03 56 1008.3
20260508000101 11 13 0.0 0.0 0.00 0.03 0.03 59 1008.1
20260507234554 11 15 0.0 0.0 0.00 0.03 0.03 57 1008.0
20260507233050 11 30 0.0 0.0 0.00 0.03 0.03 55 1007.9
20260507231541 12 30 0.0 1.6 0.00 0.03 0.03 56 1007.7
20260507230040 12 5 0.0 1.6 0.00 0.03 0.03 55 1007.9
20260507224539 12 24 0.0 1.6 0.00 0.03 0.03 55 1007.8
20260507223027 12 55 0.0 3.2 0.00 0.03 0.03 56 1007.7
20260507221532 12 19 0.0 3.2 0.00 0.03 0.03 55 1007.8
20260507220027 13 35 0.0 4.8 0.00 0.03 0.03 54 1007.7
20260507214522 13 67 0.0 8.0 0.00 0.03 0.03 53 1007.7
20260507213018 13 49 0.0 4.8 0.00 0.03 0.03 53 1008.0
20260507211519 13 12 0.0 1.6 0.00 0.03 0.03 51 1008.0
20260507210015 12 32 0.0 1.6 0.00 0.03 0.03 52 1008.0
20260507204511 13 28 0.0 0.0 0.00 0.03 0.03 52 1007.9
20260507203013 13 25 0.0 9.7 0.00 0.03 0.03 53 1008.0
20260507201609 13 55 0.0 1.6 0.00 0.03 0.03 54 1007.9
20260507200100 14 41 0.0 1.6 0.00 0.03 0.03 51 1007.9
20260507194545 14 35 0.0 3.2 0.00 0.03 0.03 51 1008.1
20260507193040 13 42 0.0 4.8 0.00 0.08 0.03 51 1008.2
20260507191549 13 302 0.0 9.7 0.00 0.08 0.03 52 1008.5
20260507190037 13 15 0.0 3.2 0.00 0.08 0.03 50 1008.5
20260507184532 13 306 0.0 6.4 0.00 0.08 0.03 50 1008.6
20260507183029 13 28 0.0 1.6 0.00 0.08 0.03 50 1008.7
20260507181517 12 17 0.0 0.0 0.00 0.08 0.03 52 1008.8
20260507180014 12 22 0.0 8.0 0.00 0.08 0.03 51 1009.0
20260507174511 12 21 0.0 16.1 0.00 0.08 0.03 53 1009.1
20260507173005 12 22 0.0 8.0 0.00 0.10 0.03 53 1009.2
20260507171510 12 40 0.0 4.8 0.00 0.10 0.03 55 1009.5
20260507170006 12 34 0.0 0.0 0.00 0.10 0.03 54 1009.5
20260507164501 12 17 0.0 3.2 0.00 0.10 0.03 55 1009.6
20260507163057 12 260 0.0 4.8 0.00 0.10 0.03 55 1009.8
20260507161546 12 205 0.0 0.0 0.00 0.10 0.03 55 1010.0
20260507160042 12 229 0.0 1.6 0.00 0.10 0.03 55 1010.1
20260507154537 12 252 0.0 6.4 0.00 0.10 0.03 55 1010.3
20260507153035 12 192 0.0 4.8 0.00 0.23 0.03 55 1010.5
20260507151519 12 14 0.0 3.2 0.00 0.23 0.03 57 1010.6
20260507150015 12 151 0.0 1.6 0.00 0.23 0.03 57 1010.7
20260507144510 11 244 0.0 1.6 0.00 0.23 0.03 57 1010.8
20260507143006 10 21 0.0 1.6 0.00 0.30 0.03 58 1011.0
20260507141524 10 5 0.0 1.6 0.00 0.30 0.03 57 1011.1
20260507140026 10 40 0.0 0.0 0.00 0.30 0.03 57 1011.1
20260507134516 10 230 0.0 1.6 0.03 0.30 0.03 50 1011.2
20260507133011 9 240 0.0 0.0 0.03 0.61 0.03 38 1011.3